Aérodrome :
LOGIN :

S'inscrire | Disclaimer

   EN    FR    IT 

 










Légende :    VFR   VFR Marginal   IFR   IFR Intensif   IFR Très Intensif
Visi : 
Plafond : 
>= 8 km
>= 3000ft
5 à 8 km
1000 à 3000 ft
1500m à 5 km
500 à 1000 ft
800 à 1500m
200 à 500 ft
< 800m
< 200 ft
Symboles :   Orages  Brouillard  Fortes neiges  Fortes précipitations  Vent > 20 kt
SIGMETs :   Divers  Orages  Givrage  Turbulence  Onde Orograph.  Cendres Volcan.







- Altitude de l'aérodrome : 407 ft


EGDM - MoD Boscombe Down Amesbury

DERNIER METAR :
  • 260850Z 26013KT 9999 SCT023 10/04 Q1017 WHT BECMG SCT025 BLU

METARs EXPIRÉS :
  • 260750Z 24014KT 9999 FEW017 09/05 Q1017 BLU TEMPO SCT020 WHT
  • 260650Z 25012KT 9999 FEW014 08/05 Q1017 BLU NOSIG

TAF TAF EGDM
Valide du 26 à 09h jusqu'au 26 à 18h UTC


260732Z 2609/2618 25012KT 9999 SCT025
PROB30
TEMPO 2609/2612 26015G25KT -SHRA SCT022
Pas de NOTAMs connus pour ce terrain.



MET'MAP, la Météo Aéronautique d'un coup d'oeil ! - Copyright ORBIFLY Décembre 2007 - Disclaimer

ORBIFLY MET'MAP TEAM :

Programmation & Développement : Alexandra Zaïnal
Conception & Développement : Baudouin d'Aumeries
Co-Programmation & Développement : Marc-Olivier Méhu
Soutien technique & logistique : Manuel Goepfert

Contact : metmap@orbifly.com




SOURCES & CREDITS :

   NOAA